Location: Arborea
(39.7744°N, 8.5819°E)
Time: 03:14:51
(UTC+00:00)

USA 229 - Pass Details

Date: 02 June 2022
Orbit: 938 x 1274 km, 63.4° (Epoch: 24 May)

Event Time Altitude Azimuth Distance (km) Brightness Sun altitude
Rises 20:55:42 0° 330° (NNW) 3,949 8.3 -19.0°
Reaches altitude 10° 20:58:44 10° 341° (NNW) 3,041 7.2 -19.3°
Maximum altitude 21:05:04 30° 41° (NE) 1,995 5.2 -20.0°
Enters shadow 21:10:41 14° 96° (E) 2,923 5.6 -20.6°
